Change the Weather History Date:

Wednesday, February 26, 2014

  Actual Average Record
Temperature  
Mean Temperature 3 °F -  
Max Temperature 17 °F 36 °F 57 °F (1958)
Min Temperature -11 °F 17 °F -14 °F (2015)
Degree Days  
Heating Degree Days 62    
Moisture  
Dew Point -5 °F    
Average Humidity 71    
Maximum Humidity 86    
Minimum Humidity 65    
Precipitation  
Precipitation 0.00 in - - ()
Sea Level Pressure  
Sea Level Pressure 30.01 in    
Wind  
Wind Speed 17 mph (West)    
Max Wind Speed 41 mph    
Max Gust Speed 48 mph    
Visibility 9 miles    
Events Snow    
Averages and records for this station are not official NWS values.
T = Trace of Precipitation, MM = Missing Value Source: NWS Daily Summary

Daily Weather History Graph

Daily Weather History Graph

Search for Another Location

Airport or City:

Trip Planner

Search our weather history database for the weather conditions in past years. The results will help you decide how hot, cold, wet, or windy it might be!

Date:

Astronomy

Feb. 26, 2014 Rise Set
Actual Time 6:48 AM CST 5:53 PM CST
Civil Twilight 6:19 AM CST 6:22 PM CST
Nautical Twilight 5:47 AM CST 6:55 PM CST
Astronomical Twilight 5:14 AM CST 7:27 PM CST
Moon 4:37 AM CST (2/26) 3:06 PM CST (2/26)
Length of Visible Light 12h 02m
Length of Day
11h 05m
Waning Crescent, 10% of the Moon is Illuminated
Feb 26
Waning Crescent
Mar 1
New
Mar 8
First Quarter
Mar 16
Full
Mar 23
Last Quarter

Hourly Weather History & Observations

Time (CST) Temp. Windchill Dew Point Humidity Pressure Visibility Wind Dir Wind Speed Gust Speed Precip Events Conditions
12:15 AM -5.8 °F -27.5 °F -13.0 °F 71% 30.32 in 10.0 mi NW 16.1 mph 23.0 mph N/A   Clear
12:35 AM -5.8 °F -28.8 °F -13.0 °F 71% 30.32 in 10.0 mi NW 18.4 mph - N/A   Clear
12:55 AM -5.8 °F -29.4 °F -13.0 °F 71% 30.32 in 10.0 mi NW 19.6 mph - N/A   Clear
1:15 AM -5.8 °F -28.2 °F -14.8 °F 65% 30.32 in 10.0 mi NW 17.3 mph - N/A   Clear
1:35 AM -5.8 °F -27.5 °F -14.8 °F 65% 30.32 in 10.0 mi NW 16.1 mph - N/A   Clear
1:55 AM -7.6 °F -28.3 °F -14.8 °F 71% 30.32 in 10.0 mi NW 13.8 mph - N/A   Clear
2:15 AM -7.6 °F -29.8 °F -14.8 °F 71% 30.31 in 10.0 mi NW 16.1 mph - N/A   Clear
2:35 AM -7.6 °F -30.5 °F -16.6 °F 65% 30.31 in 10.0 mi NW 17.3 mph - N/A   Clear
2:55 AM -7.6 °F -29.1 °F -16.6 °F 65% 30.30 in 10.0 mi NW 15.0 mph - N/A   Clear
3:15 AM -7.6 °F -29.1 °F -16.6 °F 65% 30.30 in 10.0 mi NW 15.0 mph - N/A   Clear
3:35 AM -7.6 °F -27.5 °F -16.6 °F 65% 30.29 in 10.0 mi NW 12.7 mph - N/A   Clear
3:55 AM -7.6 °F -28.3 °F -16.6 °F 65% 30.28 in 10.0 mi NW 13.8 mph - N/A   Clear
4:15 AM -7.6 °F -26.6 °F -16.6 °F 65% 30.27 in 10.0 mi WNW 11.5 mph - N/A   Clear
4:35 AM -9.4 °F -27.9 °F -16.6 °F 71% 30.26 in 10.0 mi NW 10.4 mph - N/A   Clear
4:55 AM -9.4 °F -25.6 °F -16.6 °F 71% 30.25 in 10.0 mi NW 8.1 mph - N/A   Clear
5:15 AM -11.2 °F -30.1 °F -18.4 °F 70% 30.25 in 10.0 mi West 10.4 mph - N/A   Clear
5:35 AM -11.2 °F -27.8 °F -18.4 °F 70% 30.25 in 10.0 mi West 8.1 mph - N/A   Clear
5:55 AM -11.2 °F -27.8 °F -18.4 °F 70% 30.24 in 10.0 mi WSW 8.1 mph - N/A   Clear
6:15 AM -11.2 °F -24.8 °F -18.4 °F 70% 30.23 in 10.0 mi WSW 5.8 mph - N/A   Clear
6:35 AM -11.2 °F -27.8 °F -18.4 °F 70% 30.22 in 10.0 mi WSW 8.1 mph - N/A   Clear
6:55 AM -11.2 °F -27.8 °F -16.6 °F 77% 30.22 in 10.0 mi WSW 8.1 mph - N/A   Clear
7:15 AM -11.2 °F -30.1 °F -16.6 °F 77% 30.21 in 10.0 mi WSW 10.4 mph - N/A   Clear
7:35 AM -9.4 °F -27.9 °F -16.6 °F 71% 30.20 in 10.0 mi WSW 10.4 mph - N/A   Clear
7:55 AM -9.4 °F -27.9 °F -14.8 °F 77% 30.19 in 10.0 mi WSW 10.4 mph - N/A   Clear
8:15 AM -7.6 °F -24.6 °F -14.8 °F 71% 30.18 in 10.0 mi West 9.2 mph - N/A   Clear
8:30 AM -7.6 °F -25.7 °F -13.0 °F 77% 30.17 in 10.0 mi WSW 10.4 mph - N/A   Clear
8:55 AM -5.8 °F -22.4 °F -11.2 °F 77% 30.16 in 10.0 mi WSW 9.2 mph - N/A   Clear
9:15 AM -4.0 °F -22.1 °F -11.2 °F 71% 30.15 in 10.0 mi WSW 11.5 mph - N/A   Clear
9:35 AM -4.0 °F -22.1 °F -9.4 °F 78% 30.14 in 10.0 mi SW 11.5 mph - N/A   Clear
9:55 AM -2.2 °F -21.5 °F -9.4 °F 71% 30.13 in 10.0 mi SW 13.8 mph - N/A   Clear
10:15 AM -0.4 °F -19.9 °F -9.4 °F 66% 30.12 in 10.0 mi WSW 15.0 mph - N/A   Clear
10:35 AM -0.4 °F -19.9 °F -7.6 °F 72% 30.11 in 10.0 mi WSW 15.0 mph - N/A   Clear
10:55 AM 1.4 °F -18.2 °F -7.6 °F 66% 30.09 in 10.0 mi WSW 16.1 mph - N/A   Clear
11:15 AM 3.2 °F -16.5 °F -5.8 °F 66% 30.08 in 10.0 mi SW 17.3 mph - N/A   Clear
11:35 AM 3.2 °F -18.1 °F -4.0 °F 72% 30.06 in 10.0 mi SW 20.7 mph - N/A   Clear
11:55 AM 3.2 °F -19.0 °F -5.8 °F 66% 30.04 in 10.0 mi SW 23.0 mph - N/A   Clear
12:15 PM 3.2 °F -19.0 °F -4.0 °F 72% 30.03 in 10.0 mi SW 23.0 mph - N/A   Clear
12:35 PM 3.2 °F -19.0 °F -4.0 °F 72% 30.01 in 10.0 mi WSW 23.0 mph - N/A   Clear
12:55 PM 5.0 °F -16.2 °F -4.0 °F 66% 29.98 in 10.0 mi SW 21.9 mph - N/A   Clear
1:15 PM 5.0 °F -16.7 °F -4.0 °F 66% 29.95 in 10.0 mi WSW 23.0 mph 31.1 mph N/A   Clear
1:35 PM 6.8 °F -14.3 °F -2.2 °F 67% 29.92 in 9.0 mi SW 23.0 mph 29.9 mph N/A   Clear
1:55 PM 6.8 °F -14.7 °F -2.2 °F 67% 29.90 in 5.0 mi SW 24.2 mph 34.5 mph N/A   Haze
2:15 PM 8.6 °F -12.7 °F -0.4 °F 67% 29.87 in 4.0 mi SW 25.3 mph 35.7 mph N/A   Haze
2:35 PM 10.4 °F -9.9 °F 1.4 °F 67% 29.86 in 5.0 mi SW 24.2 mph 32.2 mph N/A   Haze
2:55 PM 10.4 °F -8.6 °F 3.2 °F 73% 29.85 in 9.0 mi SW 20.7 mph 29.9 mph N/A   Partly Cloudy
3:15 PM 12.2 °F -7.5 °F 3.2 °F 67% 29.83 in 8.0 mi WSW 24.2 mph 33.4 mph N/A   Clear
3:35 PM 12.2 °F -7.1 °F 3.2 °F 67% 29.81 in 9.0 mi SW 23.0 mph - N/A   Clear
3:55 PM 12.2 °F -6.7 °F 5.0 °F 73% 29.79 in 9.0 mi SW 21.9 mph - N/A   Clear
4:15 PM 12.2 °F -7.9 °F 5.0 °F 73% 29.77 in 9.0 mi SW 25.3 mph 31.1 mph N/A   Clear
4:35 PM 14.0 °F -4.7 °F 6.8 °F 73% 29.75 in 8.0 mi SW 23.0 mph 29.9 mph N/A   Clear
4:55 PM 14.0 °F -5.5 °F 6.8 °F 73% 29.75 in 9.0 mi WSW 25.3 mph 33.4 mph N/A   Clear
5:15 PM 14.0 °F -5.5 °F 6.8 °F 73% 29.73 in 9.0 mi WSW 25.3 mph - N/A   Clear
5:35 PM 14.0 °F -4.3 °F 8.6 °F 79% 29.73 in 10.0 mi WSW 21.9 mph 29.9 mph N/A   Clear
5:55 PM 15.8 °F -1.5 °F 8.6 °F 73% 29.73 in 10.0 mi WSW 20.7 mph - N/A   Clear
6:15 PM 15.8 °F -1.5 °F 8.6 °F 73% 29.72 in 10.0 mi WSW 20.7 mph 27.6 mph N/A   Scattered Clouds
6:35 PM 14.0 °F -3.4 °F 8.6 °F 79% 29.73 in 10.0 mi WSW 19.6 mph 25.3 mph N/A   Partly Cloudy
6:55 PM 14.0 °F -3.0 °F 10.4 °F 86% 29.73 in 10.0 mi West 18.4 mph - N/A   Clear
7:15 PM 17.6 °F 0.5 °F 10.4 °F 73% 29.73 in 10.0 mi West 21.9 mph - N/A   Partly Cloudy
7:35 PM 17.6 °F -0.6 °F 10.4 °F 73% 29.72 in 10.0 mi West 25.3 mph 33.4 mph N/A   Clear
7:55 PM 17.6 °F -0.6 °F 10.4 °F 73% 29.72 in 10.0 mi West 25.3 mph - N/A   Clear
8:15 PM 17.6 °F -0.3 °F 10.4 °F 73% 29.72 in 10.0 mi West 24.2 mph 35.7 mph N/A   Clear
8:35 PM 17.6 °F 0.5 °F 8.6 °F 68% 29.73 in 10.0 mi WNW 21.9 mph 28.8 mph N/A   Clear
8:55 PM 17.6 °F -0.6 °F 8.6 °F 68% 29.73 in 8.0 mi WNW 25.3 mph 36.8 mph N/A   Partly Cloudy
9:15 PM 15.8 °F -3.7 °F 10.4 °F 79% 29.75 in 9.0 mi WNW 27.6 mph - N/A Snow Light Snow
9:35 PM 14.0 °F -9.6 °F 10.4 °F 86% 29.76 in 0.2 mi NW 41.4 mph 48.3 mph N/A Snow Light Snow
9:55 PM 12.2 °F -9.3 °F 3.2 °F 67% 29.78 in 2.5 mi NW 29.9 mph 38.0 mph N/A Snow Light Snow
10:15 PM 10.4 °F -10.7 °F 1.4 °F 67% 29.79 in 4.0 mi NW 26.5 mph 39.1 mph N/A   Haze
10:35 PM 8.6 °F -14.1 °F -0.4 °F 67% 29.80 in 3.0 mi NW 29.9 mph 39.1 mph N/A   Haze
10:55 PM 8.6 °F -11.0 °F -0.4 °F 67% 29.80 in 10.0 mi NW 20.7 mph 29.9 mph N/A   Clear
11:15 PM 8.6 °F -13.4 °F -0.4 °F 67% 29.81 in 8.0 mi NW 27.6 mph 34.5 mph N/A   Clear
11:35 PM 8.6 °F -13.4 °F -0.4 °F 67% 29.81 in 7.0 mi NW 27.6 mph - N/A   Clear
11:55 PM 6.8 °F -15.9 °F -2.2 °F 67% 29.82 in 9.0 mi NW 27.6 mph 39.1 mph N/A   Clear